Content
SEND FEEDBACK

Daily
Averages
Monthly
Summary
Germany

GARMISCH-PARTENKIRCHEN, GERMANY


Home > Europe > Germany
Elevation: 2322 feet     Latitude: 47 30N     Longitude: 011 06E

WEATHER
 
SELECT A DAY
Number of Records: 316,041;   Date Range: 7/1/96 - 9/29/14
 
SHARE

PRINT THIS DATA

[ ← Previous Day ]
WEATHER ALMANAC - OCTOBER 25, 2013
[ Next Day → ]
[ °C ]   °F
Weather ElementAverageHighLow
Temperature53.6 °F66.2 °F (3:20 pm)46.4 °F (3:20 am)
Dewpoint46.9 °F51.8 °F (5:20 pm)44.6 °F (5:20 am)
Humidity78.8 %100 % (3:20 am)43 % (2:00 pm)
Barometer30.14 in30.19 in (8:00 am)30.06 in (5:00 pm)
Wind Speed9.1 mph13.8 mph (10:50 am)
Weather ElementAverage
Visibility16.3 mi
Wind DirectionWSW (264.3 °)

Weather ElementTotal
Precipitation---
Heating Degree Days8.7 (Base 65)
Growing Degree Days6.3 (Base 50)
Averaged from 54 records on October 25, 2013
WEATHER CONDITIONS BREAKOUT
WIND DIRECTION BREAKOUT
WEATHER BY HOUR - OCTOBER 25, 2013
[ °C ]   °F
Local TimeTemperatureDewpointHumidityBarometerVisibilityWind DirectionWind SpeedGust SpeedPrecipitationEventsConditions
12:50 AM48.2 °F46.4 °F93 %30.15 in6.2 miWest (270°)6.9 mphPartly Cloudy
1:20 AM48.2 °F46.4 °F93 %30.15 in6.2 miWest (270°)8.1 mphPartly Cloudy
1:50 AM48.2 °F46.4 °F93 %30.15 in6.2 miWest (280°)8.1 mphPartly Cloudy
2:20 AM48.2 °F46.4 °F93 %30.15 in6.2 miWNW (290°)9.2 mphPartly Cloudy
2:50 AM48.2 °F46.4 °F93 %30.15 in6.2 miWest (280°)9.2 mph
3:20 AM46.4 °F46.4 °F100 %30.15 in6.2 miWest (270°)10.4 mphPartly Cloudy
3:50 AM46.4 °F46.4 °F100 %30.15 inWest (270°)9.2 mphClear
4:20 AM46.4 °F46.4 °F100 %30.15 inWest (270°)10.4 mphClear
4:50 AM46.4 °F46.4 °F100 %30.15 inWest (270°)11.5 mphClear
5:00 AM47.0 °F46.0 °F92 %30.18 in12.0 miWest (270°)11.2 mph
5:20 AM46.4 °F44.6 °F93 %30.15 inWest (280°)11.5 mphClear
5:50 AM46.4 °F44.6 °F93 %30.15 inWest (270°)9.2 mphClear
6:20 AM46.4 °F44.6 °F93 %30.15 inWest (280°)8.1 mphClear
6:50 AM46.4 °F44.6 °F93 %30.15 inWest (270°)9.2 mphClear
7:20 AM46.4 °F44.6 °F93 %30.15 inWest (280°)8.1 mphClear
7:50 AM46.4 °F44.6 °F93 %30.15 inWNW (290°)8.1 mphClear
8:00 AM47.0 °F45.0 °F89 %30.19 in31.0 miWNW (290°)8.9 mphMostly Cloudy
8:20 AM46.4 °F44.6 °F93 %30.15 inWest (280°)10.4 mphClear
8:50 AM46.4 °F44.6 °F93 %30.18 inWNW (290°)9.2 mphClear
9:20 AM48.2 °F46.4 °F93 %30.18 inWest (280°)12.7 mphClear
9:50 AM50.0 °F46.4 °F87 %30.18 inWNW (290°)8.1 mphClear
10:20 AM53.6 °F46.4 °F77 %30.18 inWest (270°)9.2 mphClear
10:50 AM55.4 °F46.4 °F72 %30.18 inWest (270°)13.8 mphClear
11:00 AM55.0 °F47.0 °F66 %30.17 in37.0 miWest (270°)13.4 mphPartly Cloudy
11:20 AM57.2 °F46.4 °F67 %30.15 inWest (270°)12.7 mphClear
11:50 AM59.0 °F46.4 °F63 %30.15 inWest (270°)13.8 mphClear
12:20 PM60.8 °F48.2 °F63 %30.15 inWest (270°)12.7 mphClear
12:50 PM60.8 °F48.2 °F63 %30.12 inWest (270°)12.7 mphClear
1:20 PM62.6 °F48.2 °F59 %30.12 inWest (270°)11.5 mphClear
1:50 PM64.4 °F46.4 °F52 %30.09 inWest (270°)10.4 mphClear
2:00 PM64.0 °F47.0 °F43 %30.08 in37.0 miWest (270°)11.2 mphMostly Cloudy
2:20 PM64.4 °F48.2 °F56 %30.09 inWest (270°)9.2 mphClear
2:50 PM64.4 °F48.2 °F56 %30.09 inWest (270°)6.9 mphClear
3:20 PM66.2 °F48.2 °F52 %30.09 inWSW (250°)4.6 mphClear
3:50 PM64.4 °F48.2 °F56 %30.09 inWest (260°)8.1 mphClear
4:20 PM64.4 °F50.0 °F59 %30.09 inWSW (240°)5.8 mphClear
4:50 PM62.6 °F48.2 °F59 %30.09 inSW (220°)4.6 mphClear
5:00 PM63.0 °F49.0 °F50 %30.06 in37.0 miSW (220°)4.5 mphMostly Cloudy
5:20 PM62.6 °F51.8 °F68 %30.09 inWSW (250°)5.8 mphClear
5:50 PM62.6 °F50.0 °F63 %30.09 inWest (260°)8.1 mphClear
6:20 PM57.2 °F50.0 °F77 %30.09 inWest (270°)6.9 mphClear
6:50 PM57.2 °F48.2 °F72 %30.12 inWest (270°)6.9 mphClear
7:20 PM55.4 °F48.2 °F77 %30.12 inVariable3.5 mphClear
7:50 PM55.4 °F48.2 °F77 %30.12 inWest (260°)9.2 mphClear
8:00 PM55.0 °F47.0 °F68 %30.13 in22.0 miWest (260°)8.9 mphMostly Cloudy
8:20 PM53.6 °F48.2 °F82 %30.12 inWest (260°)9.2 mphClear
8:50 PM51.8 °F48.2 °F88 %30.12 inWest (260°)8.1 mphClear
9:20 PM51.8 °F46.4 °F82 %30.12 inWest (270°)9.2 mphClear
9:50 PM51.8 °F46.4 °F82 %30.15 inWest (260°)6.9 mphClear
10:20 PM50.0 °F46.4 °F87 %30.15 inWest (260°)10.4 mphClear
10:50 PM50.0 °F46.4 °F87 %30.15 inWest (280°)9.2 mphClear
11:00 PM50.0 °F47.0 °F84 %30.17 in19.0 miWest (280°)8.9 mphPartly Cloudy
11:20 PM50.0 °F46.4 °F87 %30.15 in6.2 miWest (280°)9.2 mph
11:50 PM48.2 °F46.4 °F93 %30.15 in6.2 miWest (280°)8.1 mph
Hourly data recorded from LOWI, located miles away from Garmisch-Partenkirchen, Germany







STORIES FROM OUR PARTNERS